CW4114 Weather Reports


time (UTC)temp
C
wind
direction
speed
KPH
gust
KPH
rain 1hr
cm
rain 24hr
cm
rain mn
cm
humidity
%
barometer
mb
20260906220743 21 72 3.2 6.4 0.00 0.00 0.00 72 1019.1
20260906220536 21 59 3.2 4.8 0.00 0.00 0.00 72 1019.1
20260906215742 21 66 3.2 4.8 0.00 0.00 0.00 71 1019.1
20260906215244 21 80 0.0 8.0 0.00 0.00 0.00 71 1019.3
20260906214743 21 25 4.8 8.0 0.00 0.00 0.00 71 1019.2
20260906214243 21 51 1.6 6.4 0.00 0.00 0.00 72 1019.3
20260906213742 21 28 3.2 6.4 0.00 0.00 0.00 72 1019.3
20260906213242 21 21 1.6 6.4 0.00 0.00 0.00 72 1019.2
20260906212740 21 24 3.2 6.4 0.00 0.00 0.00 73 1019.2
20260906212240 21 27 3.2 6.4 0.00 0.00 0.00 72 1019.2
20260906211738 21 37 3.2 8.0 0.00 0.00 0.00 73 1019.2
20260906211237 21 41 4.8 8.0 0.00 0.00 0.00 72 1019.2
20260906210735 21 17 1.6 6.4 0.00 0.00 0.00 73 1019.2
20260906210235 21 21 3.2 6.4 0.00 0.00 0.00 73 1019.2
20260906205733 21 9 3.2 6.4 0.00 0.00 0.00 74 1019.3
20260906205235 22 9 3.2 8.0 0.00 0.00 0.00 71 1019.2
20260906205008 21 73 3.2 8.0 0.00 0.00 0.00 71 1019.2
20260906204235 21 4 3.2 6.4 0.00 0.00 0.00 73 1019.2
20260906204006 21 8 3.2 6.4 0.00 0.00 0.00 71 1019.2
20260906203233 21 31 4.8 6.4 0.00 0.00 0.00 73 1019.2
20260906202735 22 52 3.2 6.4 0.00 0.00 0.00 76 1019.2
20260906202239 22 5 1.6 6.4 0.00 0.00 0.00 75 1019.2
20260906201233 22 31 1.6 6.4 0.00 0.00 0.00 75 1019.2
20260906200731 22 80 1.6 9.7 0.00 0.00 0.00 77 1019.1
20260906200522 22 52 3.2 9.7 0.00 0.00 0.00 76 1019.1
20260906195729 22 8 1.6 6.4 0.00 0.00 0.00 75 1019.0
20260906195226 22 340 1.6 8.0 0.00 0.00 0.00 75 1019.0
20260906194949 22 124 3.2 8.0 0.00 0.00 0.00 77 1019.1
20260906193723 22 30 3.2 6.4 0.00 0.00 0.00 75 1019.2
20260906193223 22 54 1.6 8.0 0.00 0.00 0.00 77 1019.3
20260906192722 22 97 4.8 8.0 0.00 0.00 0.00 79 1019.3
20260906192220 21 15 1.6 9.7 0.00 0.00 0.00 76 1019.3
20260906191719 22 25 1.6 9.7 0.00 0.00 0.00 77 1019.4
20260906191219 22 86 4.8 8.0 0.00 0.00 0.00 79 1019.4
20260906190722 21 59 3.2 6.4 0.00 0.00 0.00 77 1019.6
20260906190301 21 89 4.8 9.7 0.00 0.00 0.00 77 1019.5
20260906185716 22 25 4.8 9.7 0.00 0.00 0.00 79 1019.6
20260906185216 22 69 4.8 8.0 0.00 0.00 0.00 78 1019.7
20260906184716 22 92 4.8 9.7 0.00 0.00 0.00 80 1019.7
20260906184442 21 58 6.4 9.7 0.00 0.00 0.00 79 1019.7
20260906183716 21 83 3.2 9.7 0.00 0.00 0.00 78 1019.8
20260906183216 22 92 4.8 9.7 0.00 0.00 0.00 79 1019.7
20260906182713 21 87 4.8 9.7 0.00 0.00 0.00 80 1019.9
20260906182214 21 83 6.4 9.7 0.00 0.00 0.00 79 1019.8
20260906181714 22 47 4.8 9.7 0.00 0.00 0.00 80 1019.8
20260906181213 22 65 6.4 11.3 0.00 0.00 0.00 80 1019.9
20260906180714 22 82 6.4 11.3 0.00 0.00 0.00 80 1020.0
20260906180214 21 102 4.8 8.0 0.00 0.00 0.00 81 1020.0
20260906175938 21 24 3.2 9.7 0.00 0.00 0.00 81 1020.1
20260906175212 21 102 4.8 9.7 0.00 0.00 0.00 82 1020.0
20260906174713 21 8 3.2 8.0 0.00 0.00 0.00 82 1020.2
20260906174213 21 4 3.2 6.4 0.00 0.00 0.00 81 1020.1
20260906173713 21 69 4.8 6.4 0.00 0.00 0.00 80 1020.3
20260906173213 22 24 1.6 8.0 0.00 0.00 0.00 83 1020.3
20260906172713 21 95 4.8 8.0 0.00 0.00 0.00 82 1020.2
20260906172212 21 76 3.2 9.7 0.00 0.00 0.00 82 1020.3
20260906171711 21 25 3.2 9.7 0.00 0.00 0.00 82 1020.3
20260906171213 22 62 1.6 9.7 0.00 0.00 0.00 83 1020.3
20260906170939 21 82 4.8 9.7 0.00 0.00 0.00 84 1020.3
20260906170219 21 24 3.2 8.0 0.00 0.00 0.00 85 1020.4
20260906165712 21 7 3.2 8.0 0.00 0.00 0.00 83 1020.5
20260906165212 21 14 1.6 8.0 0.00 0.00 0.00 83 1020.5
20260906164711 21 85 4.8 8.0 0.00 0.00 0.00 85 1020.5
20260906164212 21 324 1.6 8.0 0.00 0.00 0.00 84 1020.5
20260906163709 21 99 3.2 8.0 0.00 0.00 0.00 82 1020.4
20260906163250 21 78 6.4 8.0 0.00 0.00 0.00 85 1020.5
20260906162707 21 89 6.4 8.0 0.00 0.00 0.00 83 1020.5
20260906162301 21 76 3.2 9.7 0.00 0.00 0.00 85 1020.6
20260906161706 21 86 6.4 9.7 0.00 0.00 0.00 84 1020.6
20260906161250 21 104 3.2 9.7 0.00 0.00 0.00 84 1020.5
20260906160708 21 7 3.2 9.7 0.00 0.00 0.00 86 1020.5
20260906160230 21 87 4.8 8.0 0.00 0.00 0.00 84 1020.5
20260906155528 21 76 3.2 9.7 0.00 0.00 0.00 86 1020.5
20260906155028 21 65 4.8 9.7 0.00 0.00 0.00 84 1020.5
20260906154524 21 95 4.8 8.0 0.00 0.00 0.00 85 1020.4
20260906154023 21 35 3.2 9.7 0.00 0.00 0.00 84 1020.4
20260906153743 21 100 3.2 9.7 0.00 0.00 0.00 86 1020.4
20260906153015 21 76 3.2 8.0 0.00 0.00 0.00 86 1020.4
20260906152517 21 11 3.2 8.0 0.00 0.00 0.00 85 1020.3
20260906152013 20 52 3.2 8.0 0.00 0.00 0.00 86 1020.4
20260906151515 20 27 3.2 6.4 0.00 0.00 0.00 85 1020.3
20260906151012 21 38 3.2 8.0 0.00 0.00 0.00 85 1020.2
20260906150741 21 72 3.2 8.0 0.00 0.00 0.00 85 1020.3
20260906150235 21 28 3.2 8.0 0.00 0.00 0.00 86 1020.2
20260906145011 20 44 4.8 9.7 0.00 0.00 0.00 87 1020.3
20260906144509 20 80 4.8 8.0 0.00 0.00 0.00 86 1020.2
20260906144243 20 100 6.4 8.0 0.00 0.00 0.00 87 1020.1
20260906143510 20 63 6.4 8.0 0.00 0.00 0.00 88 1020.1
20260906143010 20 38 3.2 6.4 0.00 0.00 0.00 89 1020.0
20260906142508 20 31 3.2 6.4 0.00 0.00 0.00 87 1020.1
20260906142008 20 8 3.2 8.0 0.00 0.00 0.00 88 1020.0
20260906141509 20 357 3.2 8.0 0.00 0.00 0.00 88 1020.0
20260906141010 20 72 3.2 6.4 0.00 0.00 0.00 88 1020.0
20260906140506 20 56 3.2 6.4 0.00 0.00 0.00 88 1020.0
20260906140008 20 41 1.6 6.4 0.00 0.00 0.00 88 1019.9
20260906135507 20 15 1.6 8.0 0.00 0.00 0.00 90 1019.8
20260906135009 19 9 4.8 8.0 0.00 0.00 0.00 89 1019.9
20260906134507 19 48 3.2 6.4 0.00 0.00 0.00 89 1019.8
20260906134242 19 18 1.6 4.8 0.00 0.00 0.00 90 1019.8
20260906133509 19 32 3.2 4.8 0.00 0.00 0.00 90 1019.8
20260906133007 19 30 1.6 4.8 0.00 0.00 0.00 90 1019.8
20260906132507 19 28 3.2 4.8 0.00 0.00 0.00 89 1019.8
20260906132006 19 42 1.6 4.8 0.00 0.00 0.00 90 1019.8
20260906131506 19 59 3.2 4.8 0.00 0.00 0.00 90 1019.8
20260906131005 19 59 1.6 3.2 0.00 0.00 0.00 92 1019.7
20260906130505 19 28 1.6 3.2 0.00 0.00 0.00 92 1019.7
20260906130006 18 306 0.0 3.2 0.00 0.00 0.00 93 1019.7
20260906125504 18 275 1.6 3.2 0.00 0.00 0.00 93 1019.8
20260906125238 18 292 0.0 3.2 0.00 0.00 0.00 95 1019.6
20260906124730 17 298 0.0 3.2 0.00 0.00 0.00 96 1019.7
20260906124006 17 271 0.0 3.2 0.00 0.00 0.00 97 1019.6
20260906123504 16 323 0.0 3.2 0.00 0.00 0.00 97 1019.6
20260906123004 16 269 1.6 4.8 0.00 0.00 0.00 97 1019.6
20260906122504 16 261 3.2 4.8 0.00 0.00 0.00 97 1019.6
20260906122008 15 262 1.6 4.8 0.00 0.00 0.00 98 1019.6
20260906121505 15 252 3.2 4.8 0.00 0.00 0.00 98 1019.5
20260906121008 15 269 1.6 4.8 0.00 0.00 0.00 97 1019.5
20260906120005 14 272 1.6 4.8 0.00 0.00 0.00 97 1019.4
20260906115504 14 269 3.2 4.8 0.00 0.00 0.00 97 1019.4
20260906115004 14 272 3.2 6.4 0.00 0.00 0.00 97 1019.4
20260906114505 13 271 3.2 6.4 0.00 0.00 0.00 97 1019.3
20260906114003 13 271 1.6 4.8 0.00 0.00 0.00 97 1019.3
20260906113503 13 272 3.2 4.8 0.00 0.00 0.00 97 1019.1
20260906113002 13 262 1.6 6.4 0.00 0.00 0.00 97 1019.1
20260906112735 13 265 1.6 6.4 0.00 0.00 0.00 97 1019.0
20260906112235 13 272 3.2 6.4 0.00 0.00 0.00 97 1019.1
20260906111503 13 274 3.2 6.4 0.00 0.00 0.00 97 1019.0
20260906111003 13 282 3.2 4.8 0.00 0.00 0.00 97 1019.1
20260906110734 13 262 1.6 4.8 0.00 0.00 0.00 96 1019.1
20260906110002 13 261 0.0 3.2 0.00 0.00 0.00 96 1019.0
20260906105501 13 262 1.6 3.2 0.00 0.00 0.00 96 1018.9
20260906105001 13 257 1.6 3.2 0.00 0.00 0.00 96 1018.9
20260906104503 13 251 1.6 3.2 0.00 0.00 0.00 96 1018.9
20260906104001 13 251 1.6 3.2 0.00 0.00 0.00 96 1018.9
20260906103500 13 267 1.6 3.2 0.00 0.00 0.00 96 1018.9
20260906103000 13 264 1.6 3.2 0.00 0.00 0.00 96 1018.8
20260906102500 13 265 1.6 1.6 0.00 0.00 0.00 96 1018.8
20260906101959 13 269 1.6 3.2 0.00 0.00 0.00 96 1018.8
20260906101501 13 269 1.6 3.2 0.00 0.00 0.00 96 1018.7
20260906100959 13 252 1.6 3.2 0.00 0.00 0.00 96 1018.7
20260906100500 13 251 1.6 3.2 0.00 0.00 0.00 96 1018.7
20260906095959 13 252 1.6 3.2 0.00 0.00 0.00 96 1018.7
20260906095459 13 251 1.6 3.2 0.00 0.00 0.00 96 1018.7
20260906094959 13 254 0.0 3.2 0.00 0.00 0.00 96 1018.6
20260906094458 13 274 1.6 4.8 0.00 0.00 0.00 96 1018.5
20260906093958 13 276 3.2 4.8 0.00 0.00 0.00 96 1018.6
20260906093458 13 289 1.6 6.4 0.00 0.00 0.00 96 1018.6
20260906092959 13 275 3.2 6.4 0.00 0.00 0.00 96 1018.5
20260906092458 13 295 3.2 4.8 0.00 0.00 0.00 96 1018.5
20260906091958 13 278 3.2 4.8 0.00 0.00 0.00 96 1018.4
20260906091458 13 267 1.6 3.2 0.00 0.00 0.00 96 1018.3
20260906090958 13 261 1.6 4.8 0.00 0.00 0.00 95 1018.2
20260906090458 13 264 3.2 4.8 0.00 0.00 0.00 95 1018.2
20260906085959 13 237 1.6 3.2 0.00 0.00 0.00 95 1018.2
20260906085457 13 247 1.6 4.8 0.00 0.00 0.00 95 1018.1
20260906084957 13 274 1.6 4.8 0.00 0.00 0.00 95 1018.1
20260906084725 13 261 1.6 4.8 0.00 0.00 0.00 95 1018.1
20260906083957 13 259 0.0 4.8 0.00 0.00 0.00 95 1018.1
20260906083456 13 269 3.2 4.8 0.00 0.00 0.00 95 1018.1
20260906082957 13 271 1.6 3.2 0.00 0.00 0.00 95 1017.9
20260906082726 13 269 3.2 3.2 0.00 0.00 0.00 95 1017.9
20260906081957 13 272 1.6 4.8 0.00 0.00 0.00 95 1017.8
20260906081456 13 272 1.6 4.8 0.00 0.00 0.00 94 1017.7
20260906080959 13 254 1.6 3.2 0.00 0.00 0.00 94 1017.7
20260906080459 13 250 1.6 1.6 0.00 0.00 0.00 94 1017.7
20260906075953 13 262 1.6 3.2 0.00 0.00 0.00 94 1017.7
20260906075717 13 265 0.0 3.2 0.00 0.00 0.00 94 1017.8
20260906074952 13 265 1.6 3.2 0.00 0.00 0.00 94 1017.7
20260906074449 13 267 1.6 4.8 0.00 0.00 0.00 94 1017.7
20260906073949 13 272 1.6 4.8 0.00 0.00 0.00 94 1017.7
20260906073444 13 275 3.2 4.8 0.00 0.00 0.00 93 1017.8
20260906073213 13 276 1.6 3.2 0.00 0.00 0.00 93 1017.7
20260906072443 13 276 1.6 3.2 0.00 0.00 0.00 93 1017.7
20260906071942 13 274 1.6 4.8 0.00 0.00 0.00 93 1017.8
20260906071715 13 274 3.2 4.8 0.00 0.00 0.00 93 1017.7
20260906071206 13 276 1.6 4.8 0.00 0.00 0.00 93 1017.8
20260906070437 13 275 3.2 4.8 0.00 0.00 0.00 92 1017.8
20260906065935 13 265 3.2 4.8 0.00 0.00 0.00 92 1017.7
20260906065658 13 285 1.6 3.2 0.00 0.00 0.00 92 1017.6
20260906064934 13 271 1.6 3.2 0.00 0.00 0.00 91 1017.7
20260906064436 13 265 1.6 3.2 0.00 0.00 0.00 91 1017.7
20260906063932 14 265 0.0 3.2 0.00 0.00 0.00 91 1017.7
20260906063436 14 272 0.0 4.8 0.00 0.00 0.00 91 1017.7
20260906062933 14 278 1.6 4.8 0.00 0.00 0.00 91 1017.8
20260906062433 14 276 1.6 4.8 0.00 0.00 0.00 91 1017.8
20260906061932 14 282 1.6 3.2 0.00 0.00 0.00 91 1017.8
20260906061433 14 286 1.6 3.2 0.00 0.00 0.00 90 1017.8
20260906060935 14 279 1.6 3.2 0.00 0.00 0.00 90 1017.7
20260906060432 14 271 3.2 4.8 0.00 0.00 0.00 90 1017.8
20260906055932 14 271 1.6 4.8 0.00 0.00 0.00 89 1017.8
20260906055433 14 267 3.2 4.8 0.00 0.00 0.00 89 1017.8
20260906054932 14 271 3.2 4.8 0.00 0.00 0.00 89 1017.7
20260906054432 14 285 3.2 6.4 0.00 0.00 0.00 89 1017.8
20260906053933 14 267 3.2 6.4 0.00 0.00 0.00 89 1017.7
20260906053159 14 279 3.2 6.4 0.00 0.00 0.00 89 1017.7
20260906052437 14 275 3.2 6.4 0.00 0.00 0.00 89 1017.6
20260906052200 14 267 3.2 6.4 0.00 0.00 0.00 89 1017.6
20260906051659 14 271 1.6 4.8 0.00 0.00 0.00 88 1017.6
20260906050932 14 261 0.0 4.8 0.00 0.00 0.00 88 1017.4
20260906050432 14 276 3.2 4.8 0.00 0.00 0.00 88 1017.4
20260906045932 14 272 3.2 4.8 0.00 0.00 0.00 88 1017.4
20260906045432 14 281 3.2 4.8 0.00 0.00 0.00 87 1017.2
20260906044932 14 283 3.2 4.8 0.00 0.00 0.00 87 1017.4
20260906044435 15 275 1.6 4.8 0.00 0.00 0.00 86 1017.4
20260906044205 15 278 3.2 4.8 0.00 0.00 0.00 86 1017.4
20260906043656 15 278 3.2 4.8 0.00 0.00 0.00 86 1017.3
20260906042932 15 278 3.2 4.8 0.00 0.00 0.00 85 1017.3
20260906042452 15 271 1.6 4.8 0.00 0.00 0.00 85 1017.2
20260906041700 15 283 3.2 6.4 0.00 0.00 0.00 86 1017.4
20260906040429 15 285 3.2 6.4 0.00 0.00 0.00 86 1017.2
20260906035927 15 288 3.2 8.0 0.00 0.00 0.00 86 1017.3
20260906035655 15 279 4.8 8.0 0.00 0.00 0.00 87 1017.2
20260906034928 15 289 3.2 6.4 0.00 0.00 0.00 88 1017.1
20260906034427 15 283 4.8 6.4 0.00 0.00 0.00 88 1017.2
20260906033917 15 272 3.2 6.4 0.00 0.00 0.00 87 1017.0
20260906033414 15 252 3.2 4.8 0.00 0.00 0.00 88 1017.0
20260906032913 15 258 1.6 3.2 0.00 0.00 0.00 87 1017.1
20260906032412 15 230 1.6 3.2 0.00 0.00 0.00 87 1017.0
20260906031913 15 247 1.6 3.2 0.00 0.00 0.00 86 1017.1
20260906031412 15 262 3.2 3.2 0.00 0.00 0.00 86 1016.9
20260906030911 15 275 1.6 3.2 0.00 0.00 0.00 86 1016.9
20260906030636 15 236 0.0 0.0 0.00 0.00 0.00 85 1016.9
20260906025912 15 226 0.0 8.0 0.00 0.00 0.00 85 1016.9
20260906025411 15 9 0.0 8.0 0.00 0.00 0.00 85 1016.9
20260906024912 15 262 0.0 4.8 0.00 0.00 0.00 85 1016.9
20260906024410 15 271 1.6 4.8 0.00 0.00 0.00 85 1016.8
20260906023909 15 283 3.2 4.8 0.00 0.00 0.00 85 1016.8
20260906023409 15 269 3.2 4.8 0.00 0.00 0.00 84 1016.7
20260906022908 16 265 3.2 4.8 0.00 0.00 0.00 84 1016.8
20260906022407 16 223 3.2 6.4 0.00 0.00 0.00 84 1016.7
20260906021907 16 259 1.6 6.4 0.00 0.00 0.00 84 1016.8
20260906021637 16 279 4.8 6.4 0.00 0.00 0.00 85 1016.8
20260906021139 16 281 3.2 6.4 0.00 0.00 0.00 84 1016.7
20260906020408 16 259 3.2 6.4 0.00 0.00 0.00 84 1016.8
20260906015406 16 285 3.2 4.8 0.00 0.00 0.00 84 1016.8
20260906014906 16 247 1.6 4.8 0.00 0.00 0.00 83 1016.8
20260906014406 16 251 3.2 6.4 0.00 0.00 0.00 83 1016.8
20260906013907 16 261 3.2 6.4 0.00 0.00 0.00 84 1016.6
20260906013635 16 281 3.2 6.4 0.00 0.00 0.00 84 1016.7
20260906012903 16 274 3.2 4.8 0.00 0.00 0.00 84 1016.6
20260906012631 16 264 3.2 4.8 0.00 0.00 0.00 83 1016.7
20260906011903 16 271 3.2 4.8 0.00 0.00 0.00 83 1016.6
20260906011404 16 236 1.6 4.8 0.00 0.00 0.00 83 1016.5
20260906011325 17 251 3.2 4.8 0.00 0.00 0.00 82 1016.5
20260906010405 17 274 3.2 4.8 0.00 0.00 0.00 82 1016.5
20260906005904 17 268 3.2 3.2 0.00 0.00 0.00 81 1016.4
20260906005405 17 234 1.6 3.2 0.00 0.00 0.00 80 1016.5
20260906004903 17 252 1.6 3.2 0.00 0.00 0.00 80 1016.5
20260906004402 17 258 0.0 4.8 0.00 0.00 0.00 80 1016.4
20260906004128 18 269 3.2 4.8 0.00 0.00 0.00 79 1016.4
20260906003629 18 271 3.2 4.8 0.00 0.00 0.00 79 1016.5
20260906003130 18 259 3.2 4.8 0.00 0.00 0.00 78 1016.4
20260906002359 18 261 1.6 4.8 0.00 0.00 0.00 77 1016.4
20260906001859 18 278 1.6 3.2 0.00 0.00 0.00 75 1016.3
20260906001359 18 271 1.6 3.2 0.00 0.00 0.00 74 1016.3
20260906000901 19 269 1.6 3.2 0.00 0.00 0.00 73 1016.3
20260906000421 19 269 0.0 1.6 0.00 0.00 0.00 72 1016.2
20260905235856 19 269 0.0 1.6 0.00 0.00 0.00 71 1016.2
20260905235355 20 268 1.6 1.6 0.00 0.00 0.00 70 1016.2
20260905234855 20 76 0.0 0.0 0.00 0.00 0.00 68 1016.2
20260905234622 20 79 0.0 0.0 0.00 0.00 0.00 65 1016.3
20260905233856 20 75 0.0 0.0 0.00 0.00 0.00 64 1016.4
20260905233355 20 75 0.0 0.0 0.00 0.00 0.00 63 1016.5
20260905232853 20 75 0.0 0.0 0.00 0.00 0.00 61 1016.5
20260905232346 20 75 0.0 0.0 0.00 0.00 0.00 61 1016.5
20260905231848 20 75 0.0 0.0 0.00 0.00 0.00 61 1016.5
20260905231344 21 75 0.0 0.0 0.00 0.00 0.00 60 1016.5
20260905230844 21 76 0.0 0.0 0.00 0.00 0.00 58 1016.5
20260905230343 21 76 0.0 0.0 0.00 0.00 0.00 57 1016.5
20260905225842 21 73 0.0 3.2 0.00 0.00 0.00 58 1016.6
20260905225341 21 100 0.0 3.2 0.00 0.00 0.00 60 1016.6
20260905224842 21 104 1.6 3.2 0.00 0.00 0.00 59 1016.5
20260905224342 21 107 1.6 3.2 0.00 0.00 0.00 57 1016.5
20260905223839 21 97 1.6 3.2 0.00 0.00 0.00 58 1016.5
20260905223340 21 72 0.0 1.6 0.00 0.00 0.00 59 1016.5
20260905222840 21 68 0.0 4.8 0.00 0.00 0.00 60 1016.5
20260905222339 21 72 1.6 4.8 0.00 0.00 0.00 59 1016.4
20260905221839 21 42 0.0 3.2 0.00 0.00 0.00 61 1016.5
20260905221338 21 83 0.0 3.2 0.00 0.00 0.00 60 1016.5